Hourly Data Report for January 02, 2018

All times are specified in Local Standard Time (LST). Add 1 hour to adjust for Daylight Saving Time where and when it is observed.

PENTICTON A
BRITISH COLUMBIA

49°27'45.000" N
119°36'08.000" W
344.40 m
1126146
71889
YYF

Download Data

Hourly Data (January 2018)
Hourly Data Report for January 2, 2018
Temp Definition
°C
Dew Point Temp Definition
°C
Rel Hum Definition
%
Wind Dir Definition
10's deg

Wind Spd Definition
km/h
Visibility Definition
km
Stn Press Definition
kPa
Hmdx Definition


Wind Chill Definition


Weather Definition


TIME
00:00 -8.1 -11.7 75 1 6 24.1 99.87   -11 LegendNANA
01:00 -8.1 -11.6 76 36 2 24.1 99.89   -9 Cloudy
02:00 -8.5 -11.9 77 34 8 24.1 99.93   -13 LegendNANA
03:00 -8.0 -11.6 76 36 5 24.1 99.98   -11 LegendNANA
04:00 -8.1 -11.7 76 35 5 24.1 99.96   -11 Cloudy
05:00 -8.2 -11.4 78 33 8 24.1 99.94   -12 LegendNANA
06:00 -7.9 -11.4 76 30 4 24.1 99.95   -10 LegendNANA
07:00 -7.9 -10.9 79 34 4 9.7 99.94   -10 Snow Showers
08:00 -8.4 -11.3 80 33 3 19.3 99.94   -10 Snow Showers
09:00 -8.1 -11.0 80 36 2 24.1 99.94   -9 LegendNANA
10:00 -7.7 -11.2 76 36 1 24.1 99.91   -8 Snow
11:00 -7.7 -11.2 76 36 1 16.1 99.87   -8 LegendNANA
12:00 -7.4 -11.0 76 20 8 19.3 99.77   -11 LegendNANA
13:00 -7.3 -11.0 75 20 3 24.1 99.72   -9 Cloudy
14:00 -7.3 -10.9 75 35 4 24.1 99.64   -9 LegendNANA
15:00 -7.3 -10.9 76 36 1 24.1 99.59   -8 LegendNANA
16:00 -7.2 -10.9 75 36 2 24.1 99.55   -8 Cloudy
17:00 -7.5 -10.7 78 36 1 19.3 99.47   -8 LegendNANA
18:00 -7.2 -10.6 76 18 10 19.3 99.42   -12 LegendNANA
19:00 -7.2 -10.3 78 17 8 19.3 99.37   -11 Cloudy
20:00 -7.3 -10.6 77 20 15 19.3 99.33   -13 LegendNANA
21:00 -7.1 -10.4 78 18 12 24.1 99.27   -12 LegendNANA
22:00 -7.1 -10.5 77 22 4 19.3 99.24   -9 Cloudy
23:00 -6.8 -10.3 76 16 8 24.1 99.22   -11 LegendNANA

Notes on Data Quality.

Legend

  • E = Estimated
  • M = Missing
  • NA = Not Available
Date modified: